Location: Asheville, NC
(35.6000°N, 82.5500°W)
Time: 19:19:06
(UTC-04:00)

XW-2D - Pass Details

Date: 10 January 2018
Orbit: 511 x 529 km, 97.5° (Epoch: 21 April)

Event Time Altitude Azimuth Distance (km) Brightness Sun altitude
Rises 06:01:47 0° 22° (NNE) 2,647 ? -19.6°
Reaches altitude 10° 06:04:04 10° 32° (NNE) 1,751 ? -19.1°
Maximum altitude 06:07:29 33° 97° (E) 889 ? -18.5°
Drops below altitude 10° 06:10:52 10° 163° (SSE) 1,729 ? -17.8°
Sets 06:13:05 0° 173° (S) 2,608 ? -17.4°
